Location: Gleizolles
(44.4833°N, 6.7667°E)
Time: 03:05:25
(UTC+00:00)

Vanguard 1 Rocket - Pass Details

Date: 30 June 2024
Orbit: 650 x 4219 km, 34.3° (Epoch: 15 July)

Event Time Altitude Azimuth Distance (km) Brightness Sun altitude
Rises 05:46:30 0° 280° (W) 6,881 11.3 17.7°
Reaches altitude 10° 05:51:14 10° 271° (W) 6,288 11.2 18.5°
Maximum altitude 06:09:14 34° 217° (SW) 5,518 11.2 21.6°
Drops below altitude 10° 06:30:11 10° 163° (SSE) 7,175 12.1 25.3°
Sets 06:36:19 0° 155° (SSE) 7,909 12.4 26.4°
